Pagosa Springs, CO

2:01 AM MDT on May 28, 2017 (GMT -0600)
Pagosa Springs

Weather History for KPSO - December, 2012

Change the Weather History Date:

Thursday, December 27, 2012

  Actual Average (KE33) Record (KE33)
Temperature  
Mean Temperature 18 °F -  
Max Temperature 24 °F 34 °F 51 °F (1999)
Min Temperature 11 °F 16 °F 1 °F (2008)
Degree Days  
Heating Degree Days 48    
Moisture  
Dew Point 17 °F    
Average Humidity 88    
Maximum Humidity 96    
Minimum Humidity 66    
Precipitation  
Precipitation 0.00 in - - ()
Sea Level Pressure  
Sea Level Pressure 29.73 in    
Wind  
Wind Speed 3 mph (SW)    
Max Wind Speed 12 mph    
Max Gust Speed 18 mph    
Visibility 6 miles    
Events Snow    
Averages and records for this station are not official NWS values.
T = Trace of Precipitation, MM = Missing Value Source: NWS Daily Summary

Daily Weather History Graph

Daily Weather History Graph

Search for Another Location

Airport or City:

Trip Planner

Search our weather history database for the weather conditions in past years. The results will help you decide how hot, cold, wet, or windy it might be!

Date:

Astronomy

Dec. 27, 2012 Rise Set
Actual Time 7:21 AM MST 4:58 PM MST
Civil Twilight 6:52 AM MST 5:27 PM MST
Nautical Twilight 6:19 AM MST 5:59 PM MST
Astronomical Twilight 5:47 AM MST 6:31 PM MST
Moon 4:43 PM MST (12/27) 6:35 AM MST (12/27)
Length of Visible Light 10h 35m
Length of Day
9h 36m
Full, 100% of the Moon is Illuminated
Dec 27
Full
Dec 28
Full
Jan 4
Last Quarter
Jan 11
New
Jan 18
First Quarter

Hourly Weather History & Observations

Time (MST) Temp. Windchill Dew Point Humidity Pressure Visibility Wind Dir Wind Speed Gust Speed Precip Events Conditions
12:15 AM 23.4 °F 18.9 °F 22.1 °F 95% 29.70 in 10.0 mi SSW 3.5 mph - N/A   Overcast
12:35 AM 23.0 °F - 22.1 °F 96% 29.70 in 10.0 mi Calm Calm - N/A   Overcast
12:55 AM 23.0 °F - 22.1 °F 96% 29.70 in 7.0 mi Calm Calm - N/A Snow Light Snow
1:15 AM 23.4 °F - 22.1 °F 95% 29.70 in 7.0 mi Calm Calm - N/A Snow Light Snow
1:35 AM 23.4 °F - 22.1 °F 95% 29.70 in 10.0 mi Calm Calm - N/A Snow Light Snow
1:55 AM 23.4 °F - 22.1 °F 95% 29.71 in 4.0 mi Calm Calm - N/A Snow Light Snow
2:15 AM 23.5 °F 15.4 °F 22.1 °F 94% 29.71 in 2.0 mi South 6.9 mph - N/A Snow Light Snow
2:55 AM 23.4 °F 18.9 °F 21.7 °F 94% 29.71 in 1.8 mi South 3.5 mph - N/A Snow Light Snow
3:15 AM 23.2 °F 18.7 °F 21.6 °F 94% 29.71 in 5.0 mi SSE 3.5 mph - N/A Snow Light Snow
3:35 AM 23.0 °F 17.0 °F 21.4 °F 94% 29.71 in 3.0 mi SSW 4.6 mph - N/A Snow Light Snow
3:55 AM 23.0 °F 14.7 °F 21.6 °F 94% 29.71 in 5.0 mi SSW 6.9 mph - N/A Snow Light Snow
4:15 AM 23.0 °F 17.0 °F 21.2 °F 93% 29.70 in 2.5 mi SSW 4.6 mph - N/A Snow Light Snow
4:35 AM 22.6 °F 14.3 °F 21.0 °F 93% 29.70 in 1.8 mi SSW 6.9 mph - N/A Snow Light Snow
4:55 AM 22.5 °F 15.1 °F 20.7 °F 93% 29.70 in 2.5 mi SW 5.8 mph - N/A Snow Light Snow
5:15 AM 21.7 °F 14.3 °F 20.1 °F 93% 29.70 in 4.0 mi SW 5.8 mph - N/A Snow Light Snow
5:35 AM 18.5 °F 9.3 °F 17.4 °F 96% 29.71 in 7.0 mi SSW 6.9 mph - N/A Snow Light Snow
5:55 AM 18.7 °F - 17.4 °F 95% 29.71 in 10.0 mi Calm Calm - N/A Snow Light Snow
6:15 AM 20.7 °F 13.0 °F 19.0 °F 93% 29.71 in 10.0 mi SW 5.8 mph - N/A   Overcast
6:35 AM 20.5 °F 12.8 °F 18.3 °F 91% 29.71 in 5.0 mi SW 5.8 mph - N/A Snow Light Snow
6:55 AM 19.6 °F 13.0 °F 17.6 °F 92% 29.71 in 7.0 mi SW 4.6 mph - N/A Snow Light Snow
7:15 AM 12.9 °F - 10.8 °F 91% 29.71 in 10.0 mi Calm Calm - N/A Snow Light Snow
7:35 AM 13.5 °F - 12.4 °F 95% 29.71 in 5.0 mi Calm Calm - N/A Snow Light Snow
8:15 AM 16.3 °F - 14.7 °F 93% 29.71 in 0.8 mi Calm Calm - N/A Snow Light Snow
8:35 AM 16.9 °F - 15.1 °F 93% 29.72 in 2.0 mi Calm Calm - N/A Snow Light Snow
9:15 AM 19.0 °F - 17.6 °F 94% 29.73 in 7.0 mi Calm Calm - N/A   Overcast
9:35 AM 19.9 °F - 18.5 °F 94% 29.73 in 5.0 mi Calm Calm - N/A Snow Light Snow
9:55 AM 20.3 °F - 18.5 °F 93% 29.74 in 1.0 mi Calm Calm - N/A Snow Light Snow
10:15 AM 22.1 °F 15.9 °F 18.0 °F 84% 29.74 in 1.8 mi South 4.6 mph - N/A Snow Light Snow
10:35 AM 22.1 °F - 16.5 °F 79% 29.75 in 2.5 mi Calm Calm - N/A Snow Light Snow
10:55 AM 22.5 °F - 17.4 °F 81% 29.74 in 1.8 mi Calm Calm - N/A Snow Light Snow
11:15 AM 24.4 °F - 18.9 °F 79% 29.74 in 2.0 mi Calm Calm - N/A Snow Light Snow
11:35 AM 23.4 °F - 19.0 °F 84% 29.73 in 1.8 mi Calm Calm - N/A Snow Light Snow
11:55 AM 22.6 °F - 18.9 °F 85% 29.72 in 0.8 mi Calm Calm - N/A Snow Light Snow
12:15 PM 22.6 °F 18.0 °F 19.0 °F 86% 29.71 in 0.5 mi SSW 3.5 mph - N/A Snow Snow
12:35 PM 22.8 °F - 18.0 °F 82% 29.71 in 7.0 mi Calm Calm - N/A Snow Light Snow
12:55 PM 23.9 °F 15.0 °F 17.4 °F 76% 29.70 in 3.0 mi SW 8.1 mph - N/A Snow Light Snow
1:35 PM 23.9 °F 15.8 °F 16.3 °F 73% 29.70 in 4.0 mi SW 6.9 mph - N/A Snow Light Snow
1:55 PM 24.8 °F 14.6 °F 14.9 °F 66% 29.70 in 10.0 mi SW 10.4 mph - N/A   Mostly Cloudy
2:15 PM 23.7 °F 12.6 °F 17.2 °F 76% 29.70 in 7.0 mi WSW 11.5 mph 18.4 mph N/A Snow Light Snow
2:35 PM 23.4 °F 16.2 °F 18.1 °F 80% 29.70 in 5.0 mi WSW 5.8 mph - N/A Snow Light Snow
2:55 PM 23.0 °F 14.7 °F 16.9 °F 77% 29.70 in 5.0 mi WSW 6.9 mph - N/A Snow Light Snow
3:15 PM 23.7 °F 14.7 °F 17.6 °F 77% 29.71 in 3.0 mi WSW 8.1 mph - N/A Snow Light Snow
3:35 PM 23.0 °F 17.0 °F 13.5 °F 67% 29.71 in 10.0 mi WSW 4.6 mph - N/A   Mostly Cloudy
3:55 PM 23.5 °F 15.4 °F 14.7 °F 69% 29.71 in 7.0 mi WSW 6.9 mph - N/A Snow Light Snow
4:15 PM 23.5 °F 17.6 °F 14.0 °F 67% 29.71 in 10.0 mi SW 4.6 mph - N/A   Overcast
5:15 PM 18.5 °F - 11.8 °F 75% 29.73 in 10.0 mi Calm Calm - N/A   Mostly Cloudy
5:55 PM 20.7 °F - 14.7 °F 78% 29.75 in 7.0 mi Calm Calm - N/A Snow Light Snow
6:35 PM 12.6 °F - 11.1 °F 94% 29.76 in 10.0 mi Calm Calm - N/A   Mostly Cloudy
8:15 PM 15.8 °F - 14.0 °F 93% 29.78 in 10.0 mi Calm Calm - N/A   Overcast
8:35 PM 16.0 °F - 13.8 °F 91% 29.78 in 7.0 mi Calm Calm - N/A Snow Light Snow
8:55 PM 17.4 °F - 15.8 °F 93% 29.79 in 10.0 mi Calm Calm - N/A   Overcast
9:15 PM 17.8 °F - 16.0 °F 93% 29.80 in 7.0 mi Calm Calm - N/A Snow Light Snow
9:35 PM 17.6 °F - 16.0 °F 93% 29.80 in 7.0 mi Calm Calm - N/A Snow Light Snow
9:55 PM 17.2 °F - 15.6 °F 93% 29.80 in 10.0 mi Calm Calm - N/A Snow Light Snow
10:35 PM 11.8 °F - 10.4 °F 94% 29.81 in 10.0 mi Calm Calm - N/A   Mostly Cloudy
10:55 PM 12.0 °F - 10.0 °F 92% 29.81 in 10.0 mi Calm Calm - N/A Snow Light Snow
11:15 PM 12.4 °F - 10.2 °F 91% 29.82 in 5.0 mi Calm Calm - N/A Snow Light Snow
11:35 PM 14.7 °F - 13.1 °F 93% 29.82 in 5.0 mi Calm Calm - N/A Snow Light Snow
11:55 PM 15.6 °F - 13.6 °F 92% 29.82 in 4.0 mi Calm Calm - N/A Snow Light Snow